| time (UTC) | temp C | wind direction | speed KPH | gust KPH | rain 1hr cm | rain 24hr cm | rain mn cm | humidity % | barometer mb |
| 20260506001541 | 19 | 198 | 3.2 | 14.5 | 0.00 | 0.00 | 0.00 | 60 | 1011.9 |
| 20260506000041 | 19 | 194 | 3.2 | 19.3 | 0.00 | 0.00 | 0.00 | 59 | 1011.7 |
| 20260505231557 | 21 | 186 | 4.8 | 17.7 | 0.00 | 0.00 | 0.00 | 56 | 1011.1 |
| 20260505230041 | 21 | 195 | 4.8 | 14.5 | 0.00 | 0.00 | 0.00 | 55 | 1011.0 |
| 20260505224541 | 21 | 220 | 4.8 | 16.1 | 0.00 | 0.00 | 0.00 | 54 | 1010.7 |
| 20260505221541 | 22 | 193 | 4.8 | 20.9 | 0.00 | 0.00 | 0.00 | 51 | 1010.4 |
| 20260505220041 | 23 | 179 | 6.4 | 17.7 | 0.00 | 0.00 | 0.00 | 50 | 1010.5 |
| 20260505214540 | 23 | 198 | 6.4 | 20.9 | 0.00 | 0.00 | 0.00 | 49 | 1010.5 |
| 20260505213039 | 23 | 199 | 6.4 | 17.7 | 0.00 | 0.00 | 0.00 | 49 | 1010.5 |
| 20260505211540 | 24 | 210 | 6.4 | 17.7 | 0.00 | 0.00 | 0.00 | 47 | 1010.4 |
| 20260505210040 | 25 | 194 | 4.8 | 12.9 | 0.00 | 0.00 | 0.00 | 47 | 1010.3 |
| 20260505203043 | 25 | 206 | 6.4 | 20.9 | 0.00 | 0.00 | 0.00 | 46 | 1010.2 |
| 20260505201541 | 25 | 209 | 8.0 | 25.7 | 0.00 | 0.00 | 0.00 | 45 | 1010.3 |
| 20260505194540 | 26 | 197 | 6.4 | 20.9 | 0.00 | 0.00 | 0.00 | 45 | 1010.2 |
| 20260505192030 | 26 | 222 | 6.4 | 24.1 | 0.00 | 0.00 | 0.00 | 44 | 1010.5 |
| 20260505184539 | 27 | 210 | 6.4 | 17.7 | 0.00 | 0.00 | 0.00 | 43 | 1010.8 |
| 20260505183041 | 26 | 207 | 6.4 | 19.3 | 0.00 | 0.00 | 0.00 | 44 | 1010.8 |
| 20260505181541 | 26 | 254 | 3.2 | 11.3 | 0.00 | 0.00 | 0.00 | 44 | 1010.8 |
| 20260505180040 | 26 | 246 | 4.8 | 16.1 | 0.00 | 0.00 | 0.00 | 45 | 1010.8 |
| 20260505174539 | 25 | 199 | 4.8 | 17.7 | 0.00 | 0.00 | 0.00 | 47 | 1011.0 |
| 20260505171540 | 25 | 197 | 6.4 | 20.9 | 0.00 | 0.00 | 0.00 | 47 | 1011.4 |
| 20260505170043 | 25 | 215 | 6.4 | 16.1 | 0.00 | 0.00 | 0.00 | 47 | 1011.6 |
| 20260505164540 | 25 | 210 | 4.8 | 17.7 | 0.00 | 0.00 | 0.00 | 49 | 1011.9 |
| 20260505163041 | 24 | 209 | 4.8 | 14.5 | 0.00 | 0.00 | 0.00 | 50 | 1012.1 |
| 20260505153038 | 22 | 199 | 4.8 | 16.1 | 0.00 | 0.00 | 0.00 | 56 | 1013.2 |
| 20260505151541 | 21 | 230 | 4.8 | 14.5 | 0.00 | 0.00 | 0.00 | 58 | 1013.2 |
| 20260505124540 | 15 | 178 | 1.6 | 8.0 | 0.00 | 0.00 | 0.00 | 74 | 1014.0 |
| 20260505123057 | 15 | 199 | 3.2 | 11.3 | 0.00 | 0.00 | 0.00 | 75 | 1013.9 |
| 20260505121540 | 15 | 243 | 0.0 | 6.4 | 0.00 | 0.00 | 0.00 | 78 | 1014.1 |
| 20260505120040 | 13 | 216 | 1.6 | 9.7 | 0.00 | 0.00 | 0.00 | 81 | 1014.1 |
| 20260505114539 | 12 | 230 | 0.0 | 9.7 | 0.00 | 0.00 | 0.00 | 84 | 1014.2 |
| 20260505113039 | 12 | 210 | 1.6 | 9.7 | 0.00 | 0.00 | 0.00 | 85 | 1014.1 |
| 20260505111554 | 11 | 207 | 0.0 | 8.0 | 0.00 | 0.00 | 0.00 | 87 | 1013.9 |
| 20260505101538 | 10 | 171 | 0.0 | 1.6 | 0.00 | 0.00 | 0.00 | 86 | 1013.4 |
| 20260505100051 | 10 | 202 | 0.0 | 4.8 | 0.00 | 0.00 | 0.00 | 86 | 1013.3 |
| 20260505094540 | 10 | 191 | 0.0 | 3.2 | 0.00 | 0.00 | 0.00 | 85 | 1013.2 |
| 20260505091540 | 10 | 164 | 0.0 | 1.6 | 0.00 | 0.00 | 0.00 | 85 | 1013.2 |
| 20260505090040 | 10 | 190 | 0.0 | 8.0 | 0.00 | 0.00 | 0.00 | 84 | 1013.2 |
| 20260505084540 | 11 | 177 | 0.0 | 6.4 | 0.00 | 0.00 | 0.00 | 84 | 1013.2 |
| 20260505083039 | 10 | 187 | 0.0 | 3.2 | 0.00 | 0.00 | 0.00 | 83 | 1013.3 |
| 20260505081540 | 10 | 191 | 0.0 | 6.4 | 0.00 | 0.00 | 0.00 | 83 | 1013.3 |
| 20260505080038 | 10 | 175 | 0.0 | 4.8 | 0.00 | 0.00 | 0.00 | 83 | 1013.4 |
| 20260505074540 | 11 | 180 | 0.0 | 0.0 | 0.00 | 0.00 | 0.00 | 82 | 1013.5 |
| 20260505073041 | 10 | 165 | 0.0 | 6.4 | 0.00 | 0.00 | 0.00 | 82 | 1013.4 |
| 20260505071539 | 10 | 183 | 0.0 | 4.8 | 0.00 | 0.00 | 0.00 | 84 | 1013.5 |
| 20260505070038 | 9 | 197 | 0.0 | 6.4 | 0.00 | 0.00 | 0.00 | 84 | 1013.4 |
| 20260505061539 | 10 | 202 | 0.0 | 0.0 | 0.00 | 0.00 | 0.00 | 80 | 1013.7 |
| 20260505060040 | 10 | 146 | 0.0 | 1.6 | 0.00 | 0.00 | 0.00 | 78 | 1013.8 |
| 20260505054540 | 11 | 135 | 0.0 | 0.0 | 0.00 | 0.00 | 0.00 | 76 | 1013.9 |
| 20260505053039 | 11 | 150 | 0.0 | 0.0 | 0.00 | 0.00 | 0.00 | 75 | 1013.9 |
| 20260505051540 | 11 | 177 | 0.0 | 4.8 | 0.00 | 0.00 | 0.00 | 75 | 1014.1 |
| 20260505041538 | 12 | 207 | 0.0 | 6.4 | 0.00 | 0.00 | 0.00 | 74 | 1014.3 |
| 20260505040051 | 12 | 176 | 0.0 | 4.8 | 0.00 | 0.00 | 0.00 | 73 | 1014.2 |
| 20260505034534 | 12 | 210 | 0.0 | 6.4 | 0.00 | 0.00 | 0.00 | 73 | 1014.2 |
| 20260505033017 | 12 | 192 | 0.0 | 6.4 | 0.00 | 0.00 | 0.00 | 72 | 1014.2 |
| 20260505031517 | 12 | 176 | 0.0 | 6.4 | 0.00 | 0.00 | 0.00 | 71 | 1014.1 |
| 20260505030038 | 12 | 205 | 0.0 | 6.4 | 0.00 | 0.00 | 0.00 | 70 | 1014.1 |
| 20260505024518 | 13 | 187 | 1.6 | 8.0 | 0.00 | 0.00 | 0.00 | 69 | 1014.1 |
| 20260505021536 | 13 | 206 | 1.6 | 12.9 | 0.00 | 0.00 | 0.00 | 66 | 1014.1 |
| 20260505020019 | 13 | 192 | 1.6 | 12.9 | 0.00 | 0.00 | 0.00 | 64 | 1014.0 |
| 20260505014517 | 13 | 194 | 3.2 | 11.3 | 0.00 | 0.00 | 0.00 | 62 | 1014.0 |
| 20260505013017 | 14 | 190 | 3.2 | 12.9 | 0.00 | 0.00 | 0.00 | 61 | 1013.9 |
| 20260505011517 | 15 | 196 | 3.2 | 12.9 | 0.00 | 0.00 | 0.00 | 59 | 1013.6 |
| 20260505004519 | 15 | 190 | 3.2 | 11.3 | 0.00 | 0.00 | 0.00 | 56 | 1013.1 |